Location: Fort Collins
(40.5850°N, 105.0840°W)
Time: 18:26:19
(UTC-06:00)

Cosmos 2297 Rocket - Visible Passes

Search period start: 31 October 2014 00:00
Search period end: 09 November 2014 23:00
Orbit: 838 x 845 km, 71.0° (Epoch: 31 October)

Date Brightness Start Highest point End Pass type
(mag) Time Alt. Az. Time Alt. Az. Time Alt. Az.
31 Oct 4.8 03:37:43 14° NE 03:37:43 14° NE 03:38:32 10° NE visible
31 Oct 3.5 05:19:34 26° NNW 05:19:34 26° NNW 05:22:36 10° N visible
01 Nov 3.8 05:05:25 21° N 05:05:25 21° N 05:07:37 10° N visible
02 Nov 4.2 03:51:12 17° N 03:51:12 17° N 03:52:38 10° N visible
03 Nov 4.5 03:36:54 14° N 03:36:54 14° N 03:37:38 10° N visible
04 Nov 4.8 03:22:33 11° N 03:22:33 11° N 03:22:39 10° N visible
